Skip Page Navigation
NASA JPL Caltech
NASA Logo - Jet Propulsion Laboratory + View the NASA Portal
+ Center for Near-Earth Object Studies
JPL Home Earth Solar System Stars & Galaxies Technology
JPL Solar System Dynamics
BODIES ORBITS EPHEMERIDES TOOLS PHYSICAL DATA DISCOVERY FAQ SITE MAP
JPL Small-Body Database Browser
Search: [ help ]  
382336 (2013 TV32)
Classification: Main-belt Asteroid          SPK-ID: 2382336
Ephemeris | Orbit Diagram | Orbital Elements | Mission Design | Physical Parameters | Discovery Circumstances | Close-Approach Data ]

[ show orbit diagram ]
Orbital Elements at Epoch 2459000.5 (2020-May-31.0) TDB
Reference: JPL 13 (heliocentric ecliptic J2000)
 Element Value Uncertainty (1-sigma)   Units 
e .1859690044637183 8.7071e-08  
a 2.415311423814271 2.2528e-08 au
q 1.966138362857685 2.0953e-07 au
i .234124337194705 6.7461e-06 deg
node 93.66374843523334 0.002117 deg
peri 275.7260947110865 0.0021171 deg
M 288.1145789452325 2.2703e-05 deg
tp 2459274.276678451494
(2021-Feb-28.77667845)
8.9003e-05 TDB
period 1371.065270208933
3.75
1.9183e-05
5.252e-08
d
yr
n .2625695565500981 3.6736e-09 deg/d
Q 2.864484484770857 2.6718e-08 au
  Orbit Determination Parameters
   # obs. used (total)      94  
   data-arc span      9022 days (24.70 yr)  
   first obs. used      1994-08-11  
   last obs. used      2019-04-24  
   planetary ephem.      DE431  
   SB-pert. ephem.      SB431-N16  
   condition code      0  
   norm. resid. RMS      .58771  
   source      ORB  
   producer      Otto Matic  
   solution date      2019-Jul-14 15:39:11  

Additional Information
 Earth MOID = .965524 au 
 Jupiter MOID = 2.59866 au 
 T_jup = 3.493 
[ hide covariance matrix ]
Orbital Elements at Epoch 2456999.5 (2014-Dec-08.0) TDB
Reference: JPL 13 (heliocentric ecliptic J2000)
 Element Value Uncertainty (1-sigma)   Units 
e .185402471271573 8.6915e-08  
q 1.967738158154863 2.0893e-07 au
tp 2456535.085784953338
(2013-Aug-30.58578495)
6.9935e-05 TDB
node 93.41744033575407 0.0021139 deg
peri 276.3779114217658 0.002114 deg
i .2341873929303459 6.757e-06 deg
  Orbit Determination Parameters
   # obs. used (total)      94  
   data-arc span      9022 days (24.70 yr)  
   first obs. used      1994-08-11  
   last obs. used      2019-04-24  
   planetary ephem.      DE431  
   SB-pert. ephem.      SB431-N16  
   condition code      0  
   norm. resid. RMS      .58771  
   source      ORB  
   producer      Otto Matic  
   solution date      2019-Jul-14 15:39:11  

Additional Information
 Jupiter MOID = 2.59866 au 
 T_jup = 3.493 
Orbit Covariance (6×6)
  e q tp node peri i
e 7.554287801515425E-15 -1.808926932197276E-14 1.849227093920602E-12 -1.016537937435885E-13 4.230399988263526E-13 -2.412427648246359E-16
q -1.808926932197276E-14 4.365002627703926E-14 -4.095154673984189E-12 2.420192038522211E-13 -9.075223599928155E-13 5.90159686840757E-16
tp 1.849227093920602E-12 -4.095154673984189E-12 4.890861005774378E-9 -2.294903826102446E-11 1.301768466965099E-9 -1.917520887903361E-13
node -1.016537937435885E-13 2.420192038522211E-13 -2.294903826102446E-11 4.468652285837708E-6 -4.46861719422654E-6 -3.164967790879103E-9
peri 4.230399988263526E-13 -9.075223599928155E-13 1.301768466965099E-9 -4.46861719422654E-6 4.468948781978683E-6 3.164890376228E-9
i -2.412427648246359E-16 5.90159686840757E-16 -1.917520887903361E-13 -3.164967790879103E-9 3.164890376228E-9 4.565687778650835E-11

Ephemeris | Orbit Diagram | Orbital Elements | Mission Design | Physical Parameters | Discovery Circumstances | Close-Approach Data ]

Physical Parameter Table
Parameter Symbol Value Units Sigma Reference Notes
absolute magnitude H 17.7   n/a MPO471927  

382336 (2013 TV32)          Discovered 1998-Oct-12 by Spacewatch at Kitt Peak
Reference: Last Updated: 2013-12-19

[ show close-approach data ]
Alternate Designations
 2013 TV32 = 1998 TS = 2011 CC21 
Ephemeris | Orbit Diagram | Orbital Elements | Mission Design | Physical Parameters | Discovery Circumstances | Close-Approach Data ]
ABOUT SSD CREDITS/AWARDS PRIVACY/COPYRIGHT GLOSSARY LINKS
FirstGov 2020-Jul-07 10:49 UT
(server date/time)  
NASA Home Page
Site Manager:   Ryan S. Park
Webmaster  Alan B. Chamberlin